Weather History for Columbus, OH

Change the Weather History Date:

Monday, October 22, 2012

  Actual Average Record
Temperature  
Mean Temperature 16 °C 12 °C  
Max Temperature 25 °C 17 °C 28 °C (1947)
Min Temperature 7 °C 6 °C -4 °C (1952)
Degree Days  
Heating Degree Days 4 12  
Month to date heating degree days 225 201  
Since 1 July heating degree days 311 270  
Cooling Degree Days 0 0  
Month to date cooling degree days 8 13  
Year to date cooling degree days 1429 1024  
Growing Degree Days 11 (Base 50)    
Moisture  
Dew Point 9 °C    
Average Humidity 68    
Maximum Humidity 92    
Minimum Humidity 43    
Precipitation  
Precipitation T mm 2.03 mm 3.53 mm (1983)
Month to date precipitation 1.96 1.85  
Year to date precipitation 28.81 32.38  
Snow  
Snow 0.00 cm 0.00 cm 2.54 cm (1925)
Month to date snowfall 0.0 0.1  
Since 1 July snowfall 0.0 0.1  
Since 1 September snowfall 0.0 0.1  
Snow Depth 0.00 cm    
Sea Level Pressure  
Sea Level Pressure 1019 hPa    
Wind  
Wind Speed 7 km/h (South)    
Max Wind Speed 26 km/h    
Max Gust Speed 34 km/h    
Visibility 16 kilometers    
Events Rain    
T = Trace of Precipitation, MM = Missing Value Source: NWS Daily Summary

Daily Weather History Graph

Daily Weather History Graph

Search for Another Location

Airport:

Trip Planner

Search our weather history database for the weather conditions in past years. The results will help you decide how hot, cold, wet, or windy it might be!

Date:

Astronomy

Oct. 22, 2012 Rise Set
Actual Time 7:49 AM EDT 6:41 PM EDT
Civil Twilight 7:22 AM EDT 7:08 PM EDT
Nautical Twilight 6:50 AM EDT 7:40 PM EDT
Astronomical Twilight 6:19 AM EDT 8:11 PM EDT
Moon 2:48 PM EDT (10/22) 12:35 AM EDT (10/22)
Length of Visible Light 11h 46m
Length of Day
10h 51m
First Quarter, 56% of the Moon is Illuminated
Oct 22
First Quarter
Oct 29
Full
Nov 6
Last Quarter
Nov 13
New
Nov 20
First Quarter

Hourly Weather History & Observations

Time (EDT) Temp. Dew Point Humidity Pressure Visibility Wind Dir Wind Speed Gust Speed Precip Events Conditions
12:51 AM 9.0 °C 6.0 °C 82% 1019.9 hPa 16.1 km Calm Calm - N/A   Clear
1:51 AM 8.3 °C 5.6 °C 83% 1020.1 hPa 16.1 km Calm Calm - N/A   Clear
2:51 AM 8.0 °C 6.0 °C 87% 1019.9 hPa 16.1 km Calm Calm - N/A   Clear
3:51 AM 7.8 °C 5.0 °C 83% 1020.1 hPa 16.1 km Calm Calm - N/A   Clear
4:51 AM 7.2 °C 5.6 °C 90% 1020.0 hPa 16.1 km Calm Calm - N/A   Clear
5:51 AM 8.0 °C 5.0 °C 81% 1020.2 hPa 16.1 km Calm Calm - N/A   Clear
6:51 AM 8.3 °C 5.0 °C 80% 1020.7 hPa 16.1 km ESE 5.6 km/h / 1.5 m/s - N/A   Partly Cloudy
8:51 AM 10.6 °C 6.7 °C 77% 1021.1 hPa 16.1 km SSE 5.6 km/h / 1.5 m/s - N/A   Scattered Clouds
9:51 AM 13.3 °C 6.7 °C 64% 1021.2 hPa 16.1 km SSE 7.4 km/h / 2.1 m/s - N/A   Partly Cloudy
10:51 AM 16.0 °C 8.0 °C 59% 1021.2 hPa 16.1 km South 11.1 km/h / 3.1 m/s - N/A   Scattered Clouds
11:51 AM 17.2 °C 8.9 °C 58% 1020.8 hPa 16.1 km SSW 11.1 km/h / 3.1 m/s - N/A   Mostly Cloudy
12:51 PM 20.0 °C 10.0 °C 52% 1019.8 hPa 16.1 km South 11.1 km/h / 3.1 m/s - N/A   Scattered Clouds
1:51 PM 21.7 °C 10.0 °C 47% 1019.1 hPa 16.1 km Variable 9.3 km/h / 2.6 m/s - N/A   Scattered Clouds
2:51 PM 22.8 °C 10.6 °C 46% 1018.7 hPa 16.1 km SSW 13.0 km/h / 3.6 m/s - N/A   Mostly Cloudy
3:51 PM 24.4 °C 11.1 °C 43% 1018.0 hPa 16.1 km SSW 9.3 km/h / 2.6 m/s - N/A   Mostly Cloudy
4:51 PM 23.9 °C 10.6 °C 43% 1018.2 hPa 16.1 km SSW 13.0 km/h / 3.6 m/s - N/A   Mostly Cloudy
5:51 PM 23.0 °C 11.0 °C 47% 1018.2 hPa 16.1 km South 9.3 km/h / 2.6 m/s - N/A   Overcast
6:51 PM 22.8 °C 11.7 °C 49% 1018.2 hPa 16.1 km SSW 11.1 km/h / 3.1 m/s - N/A   Overcast
7:51 PM 22.2 °C 11.7 °C 51% 1017.7 hPa 16.1 km South 14.8 km/h / 4.1 m/s - N/A   Overcast
8:51 PM 21.1 °C 11.1 °C 53% 1017.4 hPa 16.1 km South 13.0 km/h / 3.6 m/s - N/A   Scattered Clouds
9:51 PM 20.6 °C 11.1 °C 54% 1017.9 hPa 16.1 km SSW 5.6 km/h / 1.5 m/s - N/A   Mostly Cloudy
10:51 PM 19.0 °C 12.0 °C 64% 1017.5 hPa 16.1 km SSE 9.3 km/h / 2.6 m/s - N/A   Mostly Cloudy
11:51 PM 19.0 °C 12.0 °C 64% 1017.5 hPa 16.1 km SSE 7.4 km/h / 2.1 m/s - N/A Rain Light Rain